[[{"header":{"parameterUnit":"m.s-1","parameterCategory":1,"la1":30.2992,"la2":30.254,"lo1":-89.0895,"lo2":-89.0443,"dy":0.0025,"dx":0.0025,"nx":19,"ny":19,"refTime":"2026-03-08T09:00:00:Z","depth":0,"parameterNumber":2,"parameterNumberName":"U-component_of_WINDS"},"data":[0,0,0,-1.7954,-1.7954,-1.7969,-1.7969,-1.7992,-1.7992,0,0,0,0,0,0,0,0,0,0,0,-1.7953,-1.7953,-1.7954,-1.7954,-1.7969,-1.7969,-1.7992,-1.7992,0,0,0,0,0,0,0,0,0,0,0,-1.7953,-1.7953,-1.7953,-1.7954,-1.7969,-1.7969,-1.7992,-1.7979,0,0,0,0,0,0,0,0,0,0,-1.7964,-1.7967,-1.7953,-1.7953,-1.7954,-1.7969,-1.7969,-1.7978,-1.798,-1.7987,0,-1.7995,0,-1.7994,-1.7994,-1.7994,0,0,0,-1.7951,-1.7965,-1.7966,-1.7953,-1.7954,-1.7969,-1.7961,-1.7979,-1.7981,-1.7989,-1.7996,-1.7996,-1.7995,-1.7994,-1.7994,-1.8046,-1.8047,0,0,-1.7951,-1.7957,-1.7965,-1.7968,-1.7966,-1.7961,-1.7962,-1.798,-1.7987,-1.7996,-1.7997,-1.7995,-1.7994,-1.7995,-1.8046,-1.8046,0,0,0,-1.795,-1.7957,-1.7957,-1.7967,-1.7969,-1.7961,-1.7963,-1.7986,-1.7986,-1.7997,-1.7995,-1.7995,-1.7995,-1.8046,-1.8046,-1.8069,0,0,0,-1.795,-1.7956,-1.7957,-1.7961,-1.7969,-1.7978,-1.7969,-1.7985,-1.7987,-1.7995,-1.7995,-1.7995,-1.8045,-1.8046,-1.8068,-1.8079,0,0,0,-1.7951,-1.7956,-1.796,-1.7961,-1.7968,-1.7978,-1.7978,-1.7985,-1.7986,-1.7994,-1.7995,-1.8045,-1.8046,-1.8066,-1.8077,-1.8093,0,0,0,-1.7954,-1.7981,-1.796,-1.799,-1.7968,-1.7992,-1.7978,-1.7996,-1.8006,-1.7995,-1.8045,-1.8046,-1.8066,-1.8075,-1.8092,-1.8107,-1.8114,0,0,-1.7992,-1.7986,-1.8003,-1.7985,-1.8015,-1.799,-1.8023,-1.8026,-1.8021,-1.8038,-1.8039,-1.8068,-1.8077,-1.8093,-1.8156,-1.8162,0,0,0,-1.8017,-1.8029,-1.8036,-1.8046,-1.8049,-1.8052,-1.805,-1.805,-1.8064,-1.8032,-1.8079,-1.8084,-1.8093,-1.81,-1.8105,-1.8112,-1.805,-1.805,-1.805,-1.808,-1.8072,-1.8099,-1.8092,-1.8102,-1.8098,-1.8105,-1.8105,-1.8095,-1.8107,-1.8111,-1.8151,-1.8159,-1.8163,-1.817,-1.812,-1.812,-1.812,-1.812,-1.8134,-1.8149,-1.8134,-1.8154,-1.8145,-1.8162,-1.8159,-1.8151,-1.8165,-1.8147,-1.8155,-1.8134,-1.8169,-1.8175,-1.8122,-1.8121,-1.8121,-1.8121,-1.8121,-1.8173,-1.8178,-1.8179,-1.8191,-1.8201,-1.8194,-1.8207,-1.8199,-1.8191,-1.8199,-1.8201,-1.8201,-1.8198,-1.8201,-1.8201,-1.8201,-1.8201,-1.8201,-1.8201,-1.8212,-1.8212,-1.8225,-1.8229,-1.8234,-1.8238,-1.8234,-1.8238,-1.824,-1.8233,-1.8233,-1.822,-1.8175,-1.8163,-1.8203,-1.8203,-1.8203,-1.8203,-1.8203,-1.8268,-1.8253,-1.8273,-1.8277,-1.828,-1.829,-1.8279,-1.8287,-1.8289,-1.8296,-1.8282,-1.825,-1.8244,-1.8239,-1.8229,-1.8284,-1.8284,-1.8284,-1.8284,-1.8299,-1.8295,-1.8311,-1.8318,-1.8324,-1.8316,-1.8336,-1.8333,-1.8328,-1.8328,-1.8319,-1.8306,-1.8302,-1.8297,-1.8292,-1.8282,-1.835,-1.835,-1.835,-1.8332,-1.8327,-1.8346,-1.8341,-1.8343,-1.8344,-1.8363,-1.837,-1.8362,-1.8352,-1.8328,-1.8325,-1.8303,-1.8296,-1.8285,-1.8277,-1.8259,0,0]},{"header":{"parameterUnit":"m.s-1","parameterCategory":1,"la1":30.2992,"la2":30.254,"lo1":-89.0895,"lo2":-89.0443,"dy":0.0025,"dx":0.0025,"nx":19,"ny":19,"refTime":"2026-03-08T09:00:00:Z","depth":0,"parameterNumber":3,"parameterNumberName":"V-component_of_WINDS"},"data":[0,0,0,2.022,2.0221,2.0284,2.0285,2.0363,2.0364,0,0,0,0,0,0,0,0,0,0,0,2.0199,2.0199,2.022,2.0221,2.0284,2.0285,2.0363,2.0364,0,0,0,0,0,0,0,0,0,0,0,2.0198,2.0199,2.0199,2.0221,2.0284,2.0285,2.0363,2.0316,0,0,0,0,0,0,0,0,0,0,2.0256,2.0233,2.0199,2.0199,2.0222,2.0284,2.0285,2.0314,2.0319,2.0333,0,2.0344,0,2.0355,2.0369,2.0369,0,0,0,2.0223,2.0229,2.0248,2.02,2.0222,2.0284,2.0257,2.0317,2.0323,2.034,2.0345,2.0348,2.0357,2.037,2.037,2.0442,2.0442,0,0,2.022,2.0209,2.0244,2.0252,2.024,2.0254,2.0258,2.0321,2.0326,2.0346,2.035,2.0358,2.037,2.0371,2.0442,2.0442,0,0,0,2.0208,2.0206,2.0224,2.0248,2.026,2.0256,2.0261,2.0323,2.033,2.0351,2.0359,2.037,2.0371,2.0442,2.0442,2.0443,0,0,0,2.0206,2.02,2.0222,2.0216,2.0259,2.0292,2.0262,2.0326,2.0333,2.0358,2.037,2.0372,2.0441,2.0442,2.0443,2.0446,0,0,0,2.0195,2.0198,2.0206,2.0216,2.0242,2.0291,2.0302,2.0327,2.0338,2.0369,2.0372,2.0441,2.0442,2.0442,2.0445,2.0463,0,0,0,2.0181,2.0206,2.0206,2.0238,2.0242,2.0291,2.0301,2.0339,2.0366,2.0371,2.0441,2.0442,2.0442,2.0445,2.0462,2.0476,2.048,0,0,2.0207,2.0209,2.0229,2.0231,2.0277,2.0282,2.033,2.0365,2.0379,2.0421,2.0422,2.0443,2.0445,2.0463,2.0507,2.0511,0,0,0,2.0233,2.0248,2.0262,2.0287,2.0315,2.034,2.0369,2.0383,2.0419,2.0397,2.0454,2.0455,2.0466,2.0473,2.0476,2.0487,2.0444,2.0444,2.0444,2.0255,2.0271,2.0305,2.0329,2.0353,2.0384,2.0406,2.043,2.0438,2.0451,2.0464,2.0489,2.0497,2.05,2.0511,2.0472,2.0472,2.0472,2.0472,2.0296,2.0319,2.033,2.0368,2.0385,2.0417,2.0448,2.0453,2.0486,2.048,2.0491,2.0484,2.0503,2.0513,2.0472,2.0472,2.0472,2.0472,2.0472,2.0313,2.0327,2.0343,2.0382,2.041,2.0433,2.0465,2.0479,2.0493,2.0503,2.0519,2.0519,2.0522,2.051,2.051,2.051,2.051,2.051,2.051,2.0325,2.0342,2.0367,2.0399,2.0418,2.0444,2.0476,2.0496,2.0521,2.0529,2.0529,2.0538,2.0501,2.0492,2.0511,2.0511,2.0511,2.0511,2.0511,2.0363,2.0356,2.0394,2.0413,2.0453,2.0481,2.0499,2.0537,2.0555,2.0571,2.0577,2.0547,2.0551,2.0549,2.0542,2.0573,2.0573,2.0573,2.0573,2.0378,2.0381,2.0423,2.0453,2.0483,2.0503,2.0547,2.0573,2.0599,2.0611,2.0609,2.06,2.0597,2.0603,2.06,2.0593,2.0637,2.0637,2.0637,2.0403,2.041,2.0444,2.0468,2.05,2.0528,2.0571,2.0606,2.0633,2.064,2.0622,2.0619,2.0606,2.06,2.0607,2.0601,2.059,0,0]}]]